| time (UTC) | temp F | wind direction | speed MPH | gust MPH | rain 1hr in | rain 24hr in | rain mn in | humidity % | barometer mb |
| 20260504050116 | 36 | 33 | 0.0 | 0.0 | 0.00 | 0.00 | 0.00 | 86 | 1025.7 |
| 20260504044559 | 36 | 33 | 0.0 | 0.0 | 0.00 | 0.00 | 0.00 | 85 | 1025.7 |
| 20260504043108 | 36 | 33 | 0.0 | 0.0 | 0.00 | 0.00 | 0.00 | 84 | 1025.7 |
| 20260504041556 | 36 | 33 | 0.0 | 0.0 | 0.00 | 0.00 | 0.00 | 84 | 1025.7 |
| 20260504040059 | 36 | 33 | 0.0 | 0.0 | 0.00 | 0.00 | 0.00 | 83 | 1025.7 |
| 20260504034557 | 37 | 33 | 0.0 | 0.0 | 0.00 | 0.00 | 0.00 | 81 | 1025.7 |
| 20260504033057 | 37 | 33 | 0.0 | 0.0 | 0.00 | 0.00 | 0.00 | 81 | 1025.7 |
| 20260504031557 | 37 | 33 | 0.0 | 0.0 | 0.00 | 0.00 | 0.00 | 78 | 1025.7 |
| 20260504030049 | 38 | 33 | 0.0 | 0.0 | 0.00 | 0.00 | 0.00 | 78 | 1025.7 |
| 20260504024548 | 38 | 33 | 0.0 | 0.0 | 0.00 | 0.00 | 0.00 | 76 | 1025.7 |
| 20260504023046 | 39 | 33 | 0.0 | 0.0 | 0.00 | 0.00 | 0.00 | 75 | 1025.7 |
| 20260504021544 | 40 | 33 | 0.0 | 0.0 | 0.00 | 0.00 | 0.00 | 73 | 1025.7 |
| 20260504020040 | 40 | 33 | 0.0 | 0.0 | 0.00 | 0.00 | 0.00 | 72 | 1025.7 |
| 20260504014550 | 41 | 33 | 0.0 | 0.0 | 0.00 | 0.00 | 0.00 | 68 | 1025.7 |
| 20260504013040 | 42 | 33 | 0.0 | 0.0 | 0.00 | 0.00 | 0.00 | 67 | 1025.7 |
| 20260504011531 | 43 | 33 | 0.0 | 0.0 | 0.00 | 0.00 | 0.00 | 64 | 1025.7 |
| 20260504010031 | 45 | 33 | 0.0 | 0.0 | 0.00 | 0.00 | 0.00 | 59 | 1025.7 |
| 20260504004531 | 46 | 33 | 0.0 | 0.0 | 0.00 | 0.00 | 0.00 | 57 | 1025.7 |
| 20260504003031 | 47 | 33 | 0.0 | 0.0 | 0.00 | 0.00 | 0.00 | 55 | 1025.7 |
| 20260504001530 | 48 | 33 | 0.0 | 0.0 | 0.00 | 0.00 | 0.00 | 53 | 1025.7 |
| 20260504000040 | 49 | 33 | 0.0 | 0.0 | 0.00 | 0.00 | 0.00 | 51 | 1025.7 |
| 20260503234529 | 50 | 33 | 0.0 | 5.0 | 0.00 | 0.00 | 0.00 | 48 | 1025.7 |
| 20260503233029 | 51 | 33 | 0.0 | 4.0 | 0.00 | 0.00 | 0.00 | 45 | 1025.7 |
| 20260503231528 | 51 | 79 | 1.0 | 6.0 | 0.00 | 0.00 | 0.00 | 45 | 1025.7 |
| 20260503230033 | 52 | 68 | 0.0 | 6.0 | 0.00 | 0.00 | 0.00 | 44 | 1025.7 |
| 20260503224535 | 52 | 45 | 2.0 | 6.0 | 0.00 | 0.00 | 0.00 | 44 | 1025.7 |
| 20260503223026 | 52 | 88 | 0.0 | 9.0 | 0.00 | 0.00 | 0.00 | 44 | 1025.7 |
| 20260503221525 | 53 | 64 | 1.0 | 8.0 | 0.00 | 0.00 | 0.00 | 44 | 1025.7 |
| 20260503220027 | 53 | 70 | 1.0 | 6.0 | 0.00 | 0.00 | 0.00 | 44 | 1025.7 |
| 20260503214531 | 53 | 48 | 1.0 | 5.0 | 0.00 | 0.00 | 0.00 | 44 | 1025.7 |
| 20260503213029 | 53 | 34 | 3.0 | 8.0 | 0.00 | 0.00 | 0.00 | 43 | 1025.7 |
| 20260503211523 | 54 | 83 | 1.0 | 6.0 | 0.00 | 0.00 | 0.00 | 44 | 1025.7 |
| 20260503210039 | 54 | 37 | 3.0 | 6.0 | 0.00 | 0.00 | 0.00 | 43 | 1025.7 |
| 20260503204524 | 54 | 75 | 2.0 | 7.0 | 0.00 | 0.00 | 0.00 | 44 | 1025.7 |
| 20260503203023 | 54 | 83 | 2.0 | 8.0 | 0.00 | 0.00 | 0.00 | 45 | 1025.7 |
| 20260503201527 | 54 | 66 | 0.0 | 7.0 | 0.00 | 0.00 | 0.00 | 47 | 1025.7 |
| 20260503200021 | 55 | 51 | 2.0 | 8.0 | 0.00 | 0.00 | 0.00 | 47 | 1025.7 |
| 20260503194519 | 55 | 46 | 0.0 | 7.0 | 0.00 | 0.00 | 0.00 | 48 | 1025.7 |
| 20260503193018 | 54 | 38 | 0.0 | 7.0 | 0.00 | 0.00 | 0.00 | 49 | 1025.7 |
| 20260503191518 | 55 | 50 | 3.0 | 8.0 | 0.00 | 0.00 | 0.00 | 46 | 1025.7 |
| 20260503190016 | 55 | 52 | 0.0 | 5.0 | 0.00 | 0.00 | 0.00 | 50 | 1025.7 |
| 20260503184515 | 53 | 48 | 0.0 | 10.0 | 0.00 | 0.00 | 0.00 | 55 | 1025.7 |
| 20260503183008 | 52 | 72 | 3.0 | 12.0 | 0.00 | 0.00 | 0.00 | 53 | 1025.7 |
| 20260503181506 | 52 | 93 | 4.0 | 10.0 | 0.00 | 0.00 | 0.00 | 56 | 1025.7 |
| 20260503180005 | 51 | 73 | 3.0 | 7.0 | 0.00 | 0.00 | 0.00 | 60 | 1025.7 |
| 20260503174504 | 52 | 40 | 0.0 | 6.0 | 0.00 | 0.00 | 0.00 | 60 | 1025.7 |
| 20260503173001 | 51 | 77 | 0.0 | 4.0 | 0.00 | 0.00 | 0.00 | 65 | 1025.7 |
| 20260503171558 | 50 | 88 | 0.0 | 5.0 | 0.00 | 0.00 | 0.00 | 66 | 1025.7 |
| 20260503110125 | 43 | 37 | 0.0 | 0.0 | 0.00 | 0.00 | 0.00 | 86 | 1025.7 |
| 20260503081516 | 44 | 37 | 0.0 | 2.0 | 0.00 | 0.00 | 0.00 | 88 | 1025.7 |
| 20260503071510 | 45 | 37 | 0.0 | 2.0 | 0.00 | 0.00 | 0.00 | 87 | 1025.7 |
| 20260503060104 | 47 | 37 | 0.0 | 0.0 | 0.00 | 0.00 | 0.00 | 89 | 1025.7 |